Moore, Oklahoma, United States
Lat: 35.34N, Lon: 97.49W
Wx Zone: OKZ029
Local Info
Past Weather Observations for Sunday, May 29, 2016

NOTE: This archive is for the closest National Weather Service station to Moore. Information may differ from the station used for current weather conditions.

Click here for Long-term Archive

Time Weather Temperature Dewpoint Humidity Pressure Winds Precip Visibility
23:52
Overcast
66°F / 19°C 61°F / 16°C 83% 30.06 in
(1018 mb)
NE 12.7 mph
(NE 20 kph)
- 10SM
22:52
Overcast
68°F / 20°C 61°F / 16°C 78% 30.06 in
(1018 mb)
NE 6.9 mph
(NE 11 kph)
- 10SM
22:16
Overcast
70°F / 21°C 61°F / 16°C 73% 30.09 in
(1019 mb)
NE 10.4 mph
(NE 17 kph)
- 10SM
21:52
Mostly Cloudy
Thunder Storms
70°F / 21°C 59°F / 15°C 69% 30.09 in
(1019 mb)
SSW 5.8 mph
(SSW 9 kph)
0.33 in
(8.38 mm)
10SM
21:44
Mostly Cloudy
Thunder Storms
72°F / 22°C 59°F / 15°C 65% 30.09 in
(1019 mb)
SW 6.9 mph
(SW 11 kph)
0.33 in
(8.38 mm)
2 1/2SM
21:39
Mostly Cloudy
Thunder Storms
73°F / 23°C 57°F / 14°C 57% 30.09 in
(1019 mb)
Calm 0.23 in
(5.84 mm)
1 1/4SM
21:25
Mostly Cloudy
Thunder Storms
70°F / 21°C 59°F / 15°C 69% 30.09 in
(1019 mb)
SW 6.9 mph
(SW 11 kph)
0.00 in
(0.00 mm)
10SM
20:52
Mostly Cloudy
73°F / 23°C 55°F / 13°C 53% 30.06 in
(1018 mb)
NW 18.4 mph
(NW 30 kph)
- 10SM
19:52
Overcast
77°F / 25°C 66°F / 19°C 69% 30.04 in
(1017 mb)
SW 3.5 mph
(SW 6 kph)
- 10SM
18:52
Overcast
77°F / 25°C 66°F / 19°C 69% 30.04 in
(1017 mb)
SSE 6.9 mph
(SSE 11 kph)
- 10SM
17:52
Mostly Cloudy
81°F / 27°C 63°F / 17°C 54% 30.04 in
(1017 mb)
SE 10.4 mph
(SE 17 kph)
- 10SM
16:52
Mostly Cloudy
84°F / 29°C 63°F / 17°C 48% 30.01 in
(1016 mb)
SSE 9.2 mph
(SSE 15 kph)
- 10SM
15:52
Partly Cloudy
88°F / 31°C 55°F / 13°C 33% 30.04 in
(1017 mb)
Variable 4.6 mph
(Variable 7 kph)
- 10SM
14:52
Partly Cloudy
88°F / 31°C 54°F / 12°C 31% 30.04 in
(1017 mb)
Calm - 10SM
13:52
Partly Cloudy
88°F / 31°C 55°F / 13°C 33% 30.06 in
(1018 mb)
Variable 3.5 mph
(Variable 6 kph)
- 10SM
12:52
Partly Cloudy
86°F / 30°C 57°F / 14°C 38% 30.12 in
(1020 mb)
SW 8.1 mph
(SW 13 kph)
- 10SM
11:52
Partly Cloudy
84°F / 29°C 57°F / 14°C 40% 30.12 in
(1020 mb)
NW 6.9 mph
(NW 11 kph)
- 10SM
10:52
Partly Cloudy
82°F / 28°C 59°F / 15°C 45% 30.15 in
(1021 mb)
Variable 6.9 mph
(Variable 11 kph)
- 10SM
09:52
Partly Cloudy
81°F / 27°C 61°F / 16°C 51% 30.15 in
(1021 mb)
SSW 6.9 mph
(SSW 11 kph)
- 10SM
08:52
Partly Cloudy
77°F / 25°C 61°F / 16°C 57% 30.15 in
(1021 mb)
W 8.1 mph
(W 13 kph)
- 10SM
07:52
Partly Cloudy
73°F / 23°C 63°F / 17°C 69% 30.12 in
(1020 mb)
SW 8.1 mph
(SW 13 kph)
- 10SM
06:52
Mostly Cloudy
68°F / 20°C 66°F / 19°C 94% 30.09 in
(1019 mb)
Calm - 10SM
05:52
Mostly Cloudy
66°F / 19°C 66°F / 19°C 100% 30.09 in
(1019 mb)
S 4.6 mph
(S 7 kph)
- 10SM
04:52
Mostly Cloudy
Fog And Mist
66°F / 19°C 66°F / 19°C 100% 30.06 in
(1018 mb)
SSE 5.8 mph
(SSE 9 kph)
- 5SM
03:52
Mostly Cloudy
Fog And Mist
70°F / 21°C 70°F / 21°C 100% 30.06 in
(1018 mb)
SSE 8.1 mph
(SSE 13 kph)
- 6SM
02:52
Overcast
72°F / 22°C 70°F / 21°C 94% 30.04 in
(1017 mb)
S 8.1 mph
(S 13 kph)
- 9SM
02:27
Overcast
72°F / 22°C 70°F / 21°C 94% 30.04 in
(1017 mb)
S 6.9 mph
(S 11 kph)
- 9SM
01:52
Partly Cloudy
70°F / 21°C 70°F / 21°C 100% 30.04 in
(1017 mb)
SSE 4.6 mph
(SSE 7 kph)
- 10SM
00:52
Partly Cloudy
72°F / 22°C 70°F / 21°C 94% 30.04 in
(1017 mb)
SSE 8.1 mph
(SSE 13 kph)
- 10SM
Time Weather Temperature Dewpoint Humidity Pressure Winds Precip Visibility


Weather for websites

WeatherForYou.com, LLC is not responsible for any damages or problems caused by this service. Current weather conditions are obtained from the closest station including government and personal stations which may have varying degrees of accuracy. Weather forecasts are derived from the NOAA NDFD. Like all things, this site belongs to Jesus Christ... He just trusts us to maintain it. If you have any questions or comments email webmaster@weatherforyou.com

Copyright © 2016, WeatherForYou.com LLC. All rights reserved.